Amsterdam, Netherlands

6:42 AM CET on March 25, 2017 (GMT +0100)
Amsterdam

Weather History for 06240 - November, 2013

Change the Weather History Date:

Saturday, November 23, 2013

  Actual Average Record
Temperature  
Mean Temperature 41 °F -  
Max Temperature 45 °F 43 °F - ()
Min Temperature 37 °F 35 °F - ()
Degree Days  
Heating Degree Days 24    
Moisture  
Dew Point 37 °F    
Average Humidity 84    
Maximum Humidity 93    
Minimum Humidity 66    
Precipitation  
Precipitation 0.00 in - - ()
Sea Level Pressure  
Sea Level Pressure 30.13 in    
Wind  
Wind Speed 6 mph ()    
Max Wind Speed 13 mph    
Max Gust Speed -    
Visibility 6.8 miles    
Events      
T = Trace of Precipitation, MM = Missing Value Source: Averaged Metar Reports

Daily Weather History Graph

Daily Weather History Graph

Search for Another Location

Airport or City:

Trip Planner

Search our weather history database for the weather conditions in past years. The results will help you decide how hot, cold, wet, or windy it might be!

Date:

Astronomy

Nov. 23, 2013 Rise Set
Actual Time 8:15 AM CET 4:38 PM CET
Civil Twilight 7:36 AM CET 5:17 PM CET
Nautical Twilight 6:54 AM CET 5:59 PM CET
Astronomical Twilight 6:13 AM CET 6:40 PM CET
Moon 10:07 PM CET (11/23) 12:10 PM CET (11/23)
Length of Visible Light 9h 40m
Length of Day
8h 22m
Waning Gibbous, 72% of the Moon is Illuminated
Nov 23
Waning Gibbous
Nov 25
Last Quarter
Dec 3
New
Dec 9
First Quarter
Dec 17
Full

Hourly Weather History & Observations

Time (CET) Temp. Windchill Dew Point Humidity Pressure Visibility Wind Dir Wind Speed Gust Speed Precip Events Conditions
12:25 AM 41.0 °F 36.4 °F 39.2 °F 93% 30.06 in 6.2 mi North 6.9 mph - N/A   Light Drizzle
12:55 AM 41.0 °F 36.4 °F 39.2 °F 93% 30.06 in 6.2 mi NNE 6.9 mph - N/A   Mostly Cloudy
1:00 AM 41 °F - 39 °F 90% 30.08 in 12 mi NNE 6.7 mph - -   Partly Cloudy
1:25 AM 41.0 °F 36.4 °F 39.2 °F 93% 30.06 in 6.2 mi North 6.9 mph - N/A   Mostly Cloudy
1:55 AM 41.0 °F 37.1 °F 39.2 °F 93% 30.06 in 6.2 mi North 5.8 mph - N/A   Mostly Cloudy
2:25 AM 41.0 °F 37.1 °F 39.2 °F 93% 30.06 in 6.2 mi North 5.8 mph - N/A   Light Drizzle
2:55 AM 41.0 °F 37.1 °F 39.2 °F 93% 30.06 in 6.2 mi North 5.8 mph - N/A   Light Drizzle
3:25 AM 41.0 °F 36.4 °F 39.2 °F 93% 30.06 in 6.2 mi North 6.9 mph - N/A   Mostly Cloudy
3:55 AM 41.0 °F 36.4 °F 39.2 °F 93% 30.06 in 6.2 mi North 6.9 mph - N/A   Mostly Cloudy
4:25 AM 41.0 °F 37.1 °F 39.2 °F 93% 30.06 in 6.2 mi North 5.8 mph - N/A   Mostly Cloudy
4:55 AM 41.0 °F 36.4 °F 39.2 °F 93% 30.06 in 6.2 mi North 6.9 mph - N/A   Mostly Cloudy
5:25 AM 41.0 °F 36.4 °F 39.2 °F 93% 30.09 in 6.2 mi North 6.9 mph - N/A   Mostly Cloudy
5:55 AM 41.0 °F 36.4 °F 39.2 °F 93% 30.09 in 6.2 mi North 6.9 mph - N/A   Overcast
6:25 AM 41.0 °F 37.1 °F 39.2 °F 93% 30.09 in 6.2 mi North 5.8 mph - N/A   Mostly Cloudy
6:55 AM 41.0 °F 37.1 °F 39.2 °F 93% 30.09 in 6.2 mi North 5.8 mph - N/A   Mostly Cloudy
7:00 AM 41 °F - 39 °F 88% 30.12 in 14 mi North 8.9 mph - -   Partly Cloudy
7:25 AM 41.0 °F 35.8 °F 37.4 °F 87% 30.09 in 6.2 mi North 8.1 mph - N/A   Mostly Cloudy
7:55 AM 41.0 °F 35.8 °F 37.4 °F 87% 30.12 in 6.2 mi NNE 8.1 mph - N/A   Mostly Cloudy
8:25 AM 41.0 °F 36.4 °F 37.4 °F 87% 30.12 in 6.2 mi NNE 6.9 mph - N/A   Mostly Cloudy
8:55 AM 42.8 °F 38.6 °F 37.4 °F 81% 30.12 in 6.2 mi NNE 6.9 mph - N/A   Mostly Cloudy
9:25 AM 42.8 °F 38.6 °F 37.4 °F 81% 30.12 in 6.2 mi North 6.9 mph - N/A   Mostly Cloudy
9:55 AM 42.8 °F 39.3 °F 39.2 °F 87% 30.15 in 6.2 mi NNE 5.8 mph - N/A   Mostly Cloudy
10:00 AM 42 °F - 38 °F 79% 30.16 in 19 mi NNE 6.7 mph - -   Overcast
10:25 AM 42.8 °F 38.6 °F 37.4 °F 81% 30.15 in 6.2 mi North 6.9 mph - N/A   Mostly Cloudy
10:55 AM 42.8 °F 38.6 °F 37.4 °F 81% 30.15 in 6.2 mi NNE 6.9 mph - N/A   Mostly Cloudy
11:25 AM 44.6 °F 40.2 °F 39.2 °F 81% 30.15 in 6.2 mi NNE 8.1 mph - N/A   Scattered Clouds
11:55 AM 44.6 °F 39.7 °F 37.4 °F 76% 30.15 in 6.2 mi NNE 9.2 mph - N/A   Scattered Clouds
12:25 PM 44.6 °F 39.2 °F 37.4 °F 76% 30.15 in 6.2 mi NNE 10.4 mph - N/A   Scattered Clouds
12:55 PM 44.6 °F 39.2 °F 37.4 °F 76% 30.15 in 6.2 mi NNE 10.4 mph - N/A   Scattered Clouds
1:00 PM 45 °F - 38 °F 68% 30.17 in 22 mi NNE 11.2 mph - -   Partly Cloudy
1:25 PM 46.4 °F 41.1 °F 39.2 °F 76% 30.15 in 6.2 mi NE 11.5 mph - N/A   Partly Cloudy
1:55 PM 44.6 °F 38.4 °F 37.4 °F 76% 30.15 in 6.2 mi NNE 12.7 mph - N/A   Partly Cloudy
2:25 PM 44.6 °F 39.2 °F 37.4 °F 76% 30.15 in 6.2 mi NNE 10.4 mph - N/A   Partly Cloudy
2:55 PM 44.6 °F 38.8 °F 35.6 °F 71% 30.15 in 6.2 mi North 11.5 mph - N/A   Partly Cloudy
3:25 PM 44.6 °F 39.2 °F 33.8 °F 66% 30.15 in 6.2 mi NNE 10.4 mph - N/A   Partly Cloudy
3:55 PM 42.8 °F 38.6 °F 33.8 °F 70% 30.15 in 6.2 mi NNE 6.9 mph - N/A   Partly Cloudy
4:25 PM 42.8 °F 38.6 °F 33.8 °F 70% 30.15 in - NNE 6.9 mph - N/A   Clear
4:55 PM 41.0 °F 38.0 °F 32.0 °F 70% 30.15 in - NNE 4.6 mph - N/A   Clear
5:25 PM 41.0 °F 38.0 °F 32.0 °F 70% 30.15 in - North 4.6 mph - N/A   Clear
5:55 PM 39.2 °F 35.9 °F 32.0 °F 75% 30.15 in - North 4.6 mph - N/A   Clear
6:25 PM 37.4 °F 32.8 °F 32.0 °F 81% 30.18 in 6.2 mi NNW 5.8 mph - N/A   Partly Cloudy
6:55 PM 39.2 °F 35.9 °F 33.8 °F 81% 30.18 in 6.2 mi North 4.6 mph - N/A   Mostly Cloudy
7:00 PM 38 °F - 34 °F 78% 30.19 in 28 mi North 4.5 mph - -   Partly Cloudy
7:25 PM 37.4 °F 34.9 °F 33.8 °F 87% 30.18 in 6.2 mi NW 3.5 mph - N/A   Mostly Cloudy
7:55 PM 39.2 °F - 35.6 °F 87% 30.18 in 6.2 mi NNW 2.3 mph - N/A   Mostly Cloudy
8:25 PM 39.2 °F - 35.6 °F 87% 30.18 in 6.2 mi WNW 2.3 mph - N/A   Mostly Cloudy
8:55 PM 39.2 °F - 37.4 °F 93% 30.18 in 6.2 mi Calm Calm - N/A   Mostly Cloudy
9:25 PM 41.0 °F - 37.4 °F 87% 30.18 in 6.2 mi Calm Calm - N/A   Mostly Cloudy
9:55 PM 41.0 °F - 37.4 °F 87% 30.18 in 6.2 mi NW 2.3 mph - N/A   Mostly Cloudy
10:00 PM 40 °F - 38 °F 88% 30.20 in 28 mi NW 2.2 mph - -   Overcast
10:25 PM 41.0 °F 39.0 °F 37.4 °F 87% 30.18 in 6.2 mi NW 3.5 mph - N/A   Mostly Cloudy
10:55 PM 41.0 °F - 37.4 °F 87% 30.18 in 6.2 mi NW 2.3 mph - N/A   Mostly Cloudy
11:25 PM 39.2 °F - 35.6 °F 87% 30.18 in 6.2 mi NW 1.2 mph - N/A   Mostly Cloudy
11:55 PM 39.2 °F - 37.4 °F 93% 30.18 in 6.2 mi NW 1.2 mph - N/A   Mostly Cloudy